K3CHZ Weather Reports


Display with metric or nautical units.
time (UTC)temp
F
wind
direction
speed
MPH
gust
MPH
rain 1hr
in
rain 24hr
in
rain mn
in
humidity
%
barometer
mb
20260504195717 73 195 0.0 5.0 0.00 0.00 0.00 37 1010.3
20260504195216 73 312 1.0 5.0 0.00 0.00 0.00 37 1010.4
20260504194716 73 198 0.0 3.0 0.00 0.00 0.00 38 1010.6
20260504194215 73 214 2.0 3.0 0.00 0.00 0.00 38 1010.6
20260504193717 73 198 2.0 3.0 0.00 0.00 0.00 38 1010.7
20260504193216 73 178 0.0 5.0 0.00 0.00 0.00 37 1010.9
20260504192716 73 178 1.0 5.0 0.00 0.00 0.00 41 1011.1
20260504192215 73 220 1.0 5.0 0.00 0.00 0.00 35 1011.1
20260504191715 73 212 2.0 7.0 0.00 0.00 0.00 38 1011.2
20260504191216 72 291 1.0 7.0 0.00 0.00 0.00 40 1011.5
20260504190717 72 216 1.0 7.0 0.00 0.00 0.00 36 1011.5
20260504190217 72 188 2.0 7.0 0.00 0.00 0.00 37 1011.4
20260504185715 72 21 1.0 5.0 0.00 0.00 0.00 37 1011.5
20260504185215 72 218 2.0 5.0 0.00 0.00 0.00 40 1011.5
20260504184718 72 351 1.0 5.0 0.00 0.00 0.00 36 1011.6
20260504184216 72 180 1.0 3.0 0.00 0.00 0.00 38 1011.7
20260504183717 72 299 2.0 6.0 0.00 0.00 0.00 39 1011.8
20260504183217 72 231 2.0 6.0 0.00 0.00 0.00 38 1011.8
20260504182717 72 177 2.0 6.0 0.00 0.00 0.00 38 1011.9
20260504182222 72 164 1.0 6.0 0.00 0.00 0.00 37 1012.0
20260504181723 71 261 1.0 6.0 0.00 0.00 0.00 41 1012.0
20260504181222 71 266 2.0 5.0 0.00 0.00 0.00 38 1012.1
20260504180724 71 175 1.0 5.0 0.00 0.00 0.00 37 1012.3
20260504180222 71 182 1.0 3.0 0.00 0.00 0.00 36 1012.3
20260504175722 71 281 0.0 2.0 0.00 0.00 0.00 39 1012.2
20260504175222 71 161 0.0 2.0 0.00 0.00 0.00 38 1012.3
20260504174723 70 161 0.0 6.0 0.00 0.00 0.00 39 1012.3
20260504174221 70 144 2.0 6.0 0.00 0.00 0.00 39 1012.4
20260504173723 70 196 1.0 3.0 0.00 0.00 0.00 38 1012.5
20260504173221 70 242 1.0 3.0 0.00 0.00 0.00 38 1012.6
20260504172719 69 268 1.0 5.0 0.00 0.00 0.00 37 1012.6
20260504172220 69 188 2.0 5.0 0.00 0.00 0.00 36 1012.7
20260504171719 69 193 0.0 5.0 0.00 0.00 0.00 37 1012.7
20260504171220 69 172 2.0 5.0 0.00 0.00 0.00 37 1012.8
20260504170719 69 167 1.0 3.0 0.00 0.00 0.00 39 1012.9
20260504170218 69 167 1.0 3.0 0.00 0.00 0.00 37 1012.9
20260504160216 68 293 2.0 5.0 0.00 0.00 0.00 40 1013.5
20260504150722 65 277 1.0 5.0 0.00 0.00 0.00 40 1014.1
20260504150222 65 227 0.0 3.0 0.00 0.00 0.00 40 1014.2
20260504141216 62 188 0.0 2.0 0.00 0.00 0.00 50 1014.2
20260504140716 61 194 0.0 2.0 0.00 0.00 0.00 48 1014.2
20260504140216 61 194 0.0 3.0 0.00 0.00 0.00 52 1014.2
20260504130717 55 179 1.0 3.0 0.00 0.00 0.00 58 1014.7
20260504130216 54 194 1.0 3.0 0.00 0.00 0.00 57 1014.7
20260504120221 49 5 0.0 0.0 0.00 0.00 0.00 72 1015.0
20260504110719 46 5 0.0 0.0 0.00 0.00 0.00 78 1015.1
20260504110219 46 5 0.0 0.0 0.00 0.00 0.00 76 1015.1
20260504100216 47 285 0.0 0.0 0.00 0.00 0.00 77 1015.1
20260504081717 46 285 0.0 0.0 0.00 0.00 0.00 81 1015.5
20260504081218 46 285 0.0 0.0 0.00 0.00 0.00 81 1015.6
20260504080716 45 285 0.0 0.0 0.00 0.00 0.00 78 1015.5
20260504080216 46 285 0.0 0.0 0.00 0.00 0.00 78 1015.6
20260504070216 44 285 0.0 0.0 0.00 0.00 0.00 76 1015.7
20260504060219 41 285 0.0 0.0 0.00 0.00 0.00 84 1015.8
20260504050716 41 285 0.0 0.0 0.00 0.00 0.00 84 1016.0
20260504050216 41 285 0.0 0.0 0.00 0.00 0.00 82 1015.9
20260504045716 41 285 0.0 0.0 0.00 0.00 0.00 82 1015.9
20260504045216 41 285 0.0 0.0 0.00 0.00 0.00 83 1015.8
20260504044717 41 285 0.0 0.0 0.00 0.00 0.00 82 1015.8
20260504044217 42 285 0.0 0.0 0.00 0.00 0.00 82 1015.8
20260504043716 42 285 0.0 0.0 0.00 0.00 0.00 82 1015.9
20260504043222 42 285 0.0 0.0 0.00 0.00 0.00 82 1015.9
20260504042717 42 285 0.0 0.0 0.00 0.00 0.00 82 1015.9
20260504042216 42 285 0.0 0.0 0.00 0.00 0.00 82 1015.8
20260504041716 42 285 0.0 0.0 0.00 0.00 0.00 81 1015.8
20260504041216 42 285 0.0 0.0 0.00 0.00 0.00 81 1015.8
20260504040718 42 285 0.0 0.0 0.00 0.00 0.00 81 1015.7
20260504040216 42 285 0.0 0.0 0.00 0.00 0.00 80 1015.7
20260504035716 42 285 0.0 0.0 0.00 0.00 0.00 79 1015.8
20260504035216 42 285 0.0 0.0 0.00 0.00 0.00 78 1015.6
20260504034717 43 285 0.0 0.0 0.00 0.00 0.00 78 1015.6
20260504034218 43 285 0.0 0.0 0.00 0.00 0.00 78 1015.6
20260504033716 43 285 0.0 0.0 0.00 0.00 0.00 78 1015.6
20260504033216 43 285 0.0 0.0 0.00 0.00 0.00 79 1015.5
20260504032718 43 285 0.0 0.0 0.00 0.00 0.00 78 1015.4
20260504032219 43 285 0.0 0.0 0.00 0.00 0.00 78 1015.4
20260504031720 43 285 0.0 0.0 0.00 0.00 0.00 76 1015.3
20260504031220 43 285 0.0 0.0 0.00 0.00 0.00 75 1015.2
20260504030720 44 285 0.0 0.0 0.00 0.00 0.00 75 1015.1
20260504030219 44 285 0.0 0.0 0.00 0.00 0.00 76 1015.2
20260504025720 44 285 0.0 0.0 0.00 0.00 0.00 77 1015.2
20260504025222 44 285 0.0 0.0 0.00 0.00 0.00 75 1015.2
20260504024721 44 285 0.0 0.0 0.00 0.00 0.00 74 1015.1
20260504024219 45 285 0.0 0.0 0.00 0.00 0.00 70 1015.2
20260504023720 45 285 0.0 0.0 0.00 0.00 0.00 71 1015.1
20260504023219 45 285 0.0 0.0 0.00 0.00 0.00 74 1015.2
20260504022717 45 285 0.0 0.0 0.00 0.00 0.00 74 1015.1
20260504022216 45 285 0.0 0.0 0.00 0.00 0.00 72 1015.2
20260504021717 45 285 0.0 0.0 0.00 0.00 0.00 71 1015.1
20260504021216 45 285 0.0 0.0 0.00 0.00 0.00 67 1015.1
20260504020717 46 285 0.0 0.0 0.00 0.00 0.00 69 1015.1
20260504020216 46 285 0.0 0.0 0.00 0.00 0.00 73 1014.9
20260504015717 46 285 0.0 0.0 0.00 0.00 0.00 73 1014.9
20260504015217 46 285 0.0 0.0 0.00 0.00 0.00 71 1015.0
20260504014717 47 285 0.0 0.0 0.00 0.00 0.00 71 1015.0
20260504014216 47 285 0.0 0.0 0.00 0.00 0.00 72 1014.9
20260504013717 47 285 0.0 0.0 0.00 0.00 0.00 71 1015.0
20260504013217 47 285 0.0 0.0 0.00 0.00 0.00 70 1015.0
20260504012717 47 285 0.0 0.0 0.00 0.00 0.00 70 1015.0
20260504012217 47 285 0.0 0.0 0.00 0.00 0.00 68 1014.9
20260504011718 47 285 0.0 0.0 0.00 0.00 0.00 65 1014.8
20260504011217 48 285 0.0 0.0 0.00 0.00 0.00 70 1014.7
20260504010717 48 285 0.0 0.0 0.00 0.00 0.00 66 1014.7
20260504010216 48 285 0.0 0.0 0.00 0.00 0.00 68 1014.7
20260504005717 49 285 0.0 0.0 0.00 0.00 0.00 68 1014.7
20260504005217 49 285 0.0 0.0 0.00 0.00 0.00 66 1014.7
20260504004718 49 285 0.0 0.0 0.00 0.00 0.00 64 1014.6
20260504004217 50 285 0.0 0.0 0.00 0.00 0.00 64 1014.5
20260504003716 50 285 0.0 0.0 0.00 0.00 0.00 62 1014.5
20260504003217 51 285 0.0 0.0 0.00 0.00 0.00 64 1014.4
20260504002719 52 285 0.0 0.0 0.00 0.00 0.00 63 1014.4
20260504002216 52 285 0.0 0.0 0.00 0.00 0.00 61 1014.4
20260504001717 53 285 0.0 0.0 0.00 0.00 0.00 59 1014.4
20260504001218 54 285 0.0 0.0 0.00 0.00 0.00 57 1014.3
20260504000717 55 285 0.0 0.0 0.00 0.00 0.00 52 1014.3
20260504000219 56 285 0.0 0.0 0.00 0.00 0.00 50 1014.3
20260503235718 56 285 0.0 0.0 0.00 0.00 0.00 42 1014.2
20260503235217 57 285 0.0 0.0 0.00 0.00 0.00 40 1014.1
20260503234717 57 285 0.0 0.0 0.00 0.00 0.00 38 1014.1
20260503234216 57 285 0.0 0.0 0.00 0.00 0.00 42 1014.1
20260503233717 58 285 0.0 0.0 0.00 0.00 0.00 43 1014.1
20260503233217 58 285 0.0 2.0 0.00 0.00 0.00 37 1014.0
20260503232718 58 285 0.0 2.0 0.00 0.00 0.00 38 1013.9
20260503232223 58 285 0.0 2.0 0.00 0.00 0.00 38 1013.9
20260503231722 58 285 0.0 0.0 0.00 0.00 0.00 39 1013.8
20260503231223 58 285 0.0 1.0 0.00 0.00 0.00 37 1013.8
20260503230722 58 285 0.0 3.0 0.00 0.00 0.00 38 1013.8
20260503230222 59 315 0.0 3.0 0.00 0.00 0.00 36 1013.8
20260503225723 59 315 0.0 1.0 0.00 0.00 0.00 39 1013.8
20260503225222 59 315 0.0 0.0 0.00 0.00 0.00 40 1013.9
20260503224722 59 315 0.0 0.0 0.00 0.00 0.00 35 1013.9
20260503224222 59 315 0.0 0.0 0.00 0.00 0.00 37 1013.9
20260503223723 59 315 0.0 3.0 0.00 0.00 0.00 36 1013.9
20260503223223 59 315 0.0 5.0 0.00 0.00 0.00 35 1014.0
20260503222720 60 314 0.0 5.0 0.00 0.00 0.00 34 1014.0
20260503222221 60 310 0.0 5.0 0.00 0.00 0.00 38 1013.9
20260503221720 60 305 0.0 3.0 0.00 0.00 0.00 35 1013.9
20260503221220 60 305 0.0 3.0 0.00 0.00 0.00 34 1013.9
20260503220719 60 306 1.0 5.0 0.00 0.00 0.00 33 1013.9
20260503220219 60 308 1.0 5.0 0.00 0.00 0.00 35 1013.9
20260503215722 60 293 0.0 5.0 0.00 0.00 0.00 34 1014.0
20260503215220 60 316 1.0 5.0 0.00 0.00 0.00 35 1014.0
20260503214720 60 289 1.0 3.0 0.00 0.00 0.00 36 1013.9
20260503214219 60 311 1.0 3.0 0.00 0.00 0.00 32 1014.0
20260503213720 60 305 0.0 3.0 0.00 0.00 0.00 32 1014.0
20260503213220 60 279 0.0 3.0 0.00 0.00 0.00 33 1014.0
20260503212718 60 275 1.0 3.0 0.00 0.00 0.00 34 1014.0
20260503212218 60 306 1.0 5.0 0.00 0.00 0.00 32 1013.9
20260503211717 60 332 0.0 5.0 0.00 0.00 0.00 34 1013.9
20260503211216 60 310 1.0 3.0 0.00 0.00 0.00 34 1013.9
20260503210718 60 308 0.0 6.0 0.00 0.00 0.00 35 1014.0
20260503210217 60 328 2.0 6.0 0.00 0.00 0.00 33 1014.0
20260503205717 59 330 2.0 6.0 0.00 0.00 0.00 33 1014.0
20260503205217 59 304 1.0 5.0 0.00 0.00 0.00 35 1014.0
20260503204718 59 10 0.0 3.0 0.00 0.00 0.00 33 1014.0
20260503204218 59 330 0.0 8.0 0.00 0.00 0.00 34 1014.0
20260503203718 59 267 0.0 8.0 0.00 0.00 0.00 34 1014.1
20260503203218 59 302 3.0 8.0 0.00 0.00 0.00 34 1014.1
20260503202717 59 291 0.0 5.0 0.00 0.00 0.00 35 1014.3
20260503202503 59 280 1.0 5.0 0.00 0.00 0.00 33 1014.3
20260503202006 60 307 1.0 7.0 0.00 0.00 0.00 33 1014.3
20260503201505 60 317 3.0 7.0 0.00 0.00 0.00 33 1014.4
20260503201006 60 323 3.0 5.0 0.00 0.00 0.00 33 1014.4
20260503200220 59 332 2.0 7.0 0.00 0.00 0.00 34 1014.4